Location: Val-d'Or
(48.1170°N, 77.7670°W)
Time: 10:05:55
(UTC-04:00)

ISS - Pass Details

Date: 20 May 2018
Orbit: 402 x 407 km, 51.6° (Epoch: 23 May)

Event Time Altitude Azimuth Distance (km) Brightness Sun altitude
Rises 23:17:54 0° 241° (WSW) 2,312 0.0 -17.4°
Reaches altitude 10° 23:19:59 10° 240° (WSW) 1,454 -1.1 -17.6°
Maximum altitude 23:23:14 76° 155° (SSE) 419 -4.0 -17.8°
Drops below altitude 10° 23:26:30 10° 69° (ENE) 1,459 -1.1 -18.1°
Sets 23:28:35 0° 68° (ENE) 2,320 0.0 -18.2°
